Dati Storici

Data ora Umidita' aria (%) Temperatura aria (°C) Rad globale (W/m²) Gonioanemometro (°) Tacoanemometro (m/s) Pioggia (mm)
08-06-2020 06:10 97.9 % 16.323 -81.156 2.609 0 0
08-06-2020 06:00 97.9 % 16.332 -48.688 1.609 0 0
08-06-2020 05:50 97.9 % 16.296 -79.116 3.215 0 0
08-06-2020 05:40 97.9 % 16.23 -77.866 1.584 0 0
08-06-2020 05:30 97.9 % 16.212 -82.915 1.072 0 0
08-06-2020 05:20 97.8 % 16.201 -73.234 1.016 0 0
08-06-2020 05:10 97.8 % 16.195 -82.782 2.922 0 0
08-06-2020 05:00 97.9 % 16.251 -75.414 2.702 0 0
08-06-2020 04:50 97.9 % 16.282 -80.124 1.708 0 0
08-06-2020 04:40 97.9 % 16.294 -79.661 2.711 0 0
08-06-2020 04:30 97.8 % 16.267 -77.984 2.733 0 0
08-06-2020 04:20 97.8 % 16.329 -79.444 2.589 0 0
08-06-2020 04:10 97.9 % 16.307 -78.553 2.07 0 0
08-06-2020 04:00 97.9 % 16.382 -81.368 0.908 0 0
08-06-2020 03:50 97.9 % 16.383 -33.788 1.288 0 0
08-06-2020 03:40 97.9 % 16.456 -35.553 0.902 0 0
08-06-2020 03:30 97.9 % 16.482 -74.778 2.573 0 0
08-06-2020 03:20 97.9 % 16.481 -76.308 1.651 0 0
08-06-2020 03:10 97.9 % 16.529 -76.67 2.165 0 0
08-06-2020 03:00 97.9 % 16.602 -36.236 1.669 0 0

I dati sono presentati in modo automatico a scopo informativo. In seguito a verifica i dati possono subire modifiche o essere invalidati e non riportati negli archivi definitivi.